Madrid/Cuatro Vientos, Spain

4:14 AM CET on December 09, 2016 (GMT +0100)
Madrid Cuatro Vientos

Weather History for LEVS - October, 2012

Change the Weather History Date:

Wednesday, October 10, 2012

  Actual Average Record
Temperature  
Mean Temperature 69 °F -  
Max Temperature 78 °F 61 °F 80 °F (1997)
Min Temperature 60 °F 46 °F 44 °F (1998)
Cooling Degree Days 4    
Growing Degree Days 19 (Base 50)    
Moisture  
Dew Point 50 °F    
Average Humidity 49    
Maximum Humidity 77    
Minimum Humidity 32    
Precipitation  
Precipitation 0.00 in - - ()
Sea Level Pressure  
Sea Level Pressure 30.01 in    
Wind  
Wind Speed 5 mph ()    
Max Wind Speed 17 mph    
Max Gust Speed -    
Visibility 6.2 miles    
Events      
Averages and records for this station are not official NWS values.
T = Trace of Precipitation, MM = Missing Value Source: Averaged Metar Reports

Daily Weather History Graph

Daily Weather History Graph

Search for Another Location

Airport or City:

Trip Planner

Search our weather history database for the weather conditions in past years. The results will help you decide how hot, cold, wet, or windy it might be!

Date:

Astronomy

Oct. 10, 2012 Rise Set
Actual Time 8:21 AM CEST 7:42 PM CEST
Civil Twilight 7:53 AM CEST 8:09 PM CEST
Nautical Twilight 7:22 AM CEST 8:41 PM CEST
Astronomical Twilight 6:50 AM CEST 9:12 PM CEST
Moon 2:41 AM CEST (10/10) 4:37 PM CEST (10/10)
Length of Visible Light 12h 16m
Length of Day
11h 21m
Waning Crescent, 30% of the Moon is Illuminated
Oct 10
Waning Crescent
Oct 15
New
Oct 22
First Quarter
Oct 29
Full
Nov 7
Last Quarter

Hourly Weather History & Observations

Time (CEST) Temp. Dew Point Humidity Pressure Visibility Wind Dir Wind Speed Gust Speed Precip Events Conditions
7:00 AM 64.4 °F 55.4 °F 73% 30.04 in - Calm Calm - N/A   Clear
7:30 AM 62.6 °F 53.6 °F 72% 30.04 in - Calm Calm - N/A   Clear
8:00 AM 60.8 °F 53.6 °F 77% 30.04 in - Calm Calm - N/A   Clear
8:30 AM 60.8 °F 53.6 °F 77% 30.04 in - Calm Calm - N/A   Clear
9:00 AM 64.4 °F 55.4 °F 73% 30.04 in - Calm Calm - N/A   Clear
9:30 AM 68.0 °F 53.6 °F 60% 30.04 in - Calm Calm - N/A   Clear
10:00 AM 68.0 °F 53.6 °F 60% 30.04 in - Variable 2.3 mph - N/A   Clear
10:30 AM 66.2 °F 53.6 °F 64% 30.06 in - Variable 2.3 mph - N/A   Clear
11:00 AM 68.0 °F 51.8 °F 56% 30.06 in - Calm Calm - N/A   Clear
11:30 AM 71.6 °F 53.6 °F 53% 30.06 in - Calm Calm - N/A   Clear
12:00 PM 73.4 °F 50.0 °F 44% 30.06 in - Calm Calm - N/A   Clear
12:30 PM 73.4 °F 51.8 °F 47% 30.06 in 6.2 mi SW 3.5 mph - N/A   Partly Cloudy
1:00 PM 75.2 °F 50.0 °F 41% 30.06 in 6.2 mi SW 3.5 mph - N/A   Partly Cloudy
1:30 PM 73.4 °F 50.0 °F 44% 30.04 in 6.2 mi SSW 5.8 mph - N/A   Partly Cloudy
2:00 PM 75.2 °F 51.8 °F 44% 30.04 in 6.2 mi SW 5.8 mph - N/A   Partly Cloudy
3:00 PM 75.2 °F 51.8 °F 44% 30.01 in 6.2 mi SW 8.1 mph - N/A   Scattered Clouds
3:30 PM 77.0 °F 50.0 °F 39% 29.98 in 6.2 mi SW 10.4 mph - N/A   Scattered Clouds
4:00 PM 77.0 °F 50.0 °F 39% 29.98 in 6.2 mi SW 11.5 mph - N/A   Scattered Clouds
4:30 PM 78.8 °F 50.0 °F 36% 29.98 in 6.2 mi SW 12.7 mph - N/A   Scattered Clouds
5:00 PM 77.0 °F 48.2 °F 36% 29.95 in 6.2 mi SW 13.8 mph - N/A   Scattered Clouds
5:30 PM 78.8 °F 46.4 °F 32% 29.95 in 6.2 mi SW 13.8 mph - N/A   Scattered Clouds
6:00 PM 77.0 °F 46.4 °F 34% 29.95 in 6.2 mi WSW 16.1 mph - N/A   Partly Cloudy
6:30 PM 77.0 °F 46.4 °F 34% 29.95 in 6.2 mi SW 17.3 mph - N/A   Partly Cloudy
7:00 PM 75.2 °F 46.4 °F 36% 29.98 in 6.2 mi WSW 15.0 mph - N/A   Scattered Clouds
7:30 PM 73.4 °F 46.4 °F 38% 29.95 in 6.2 mi WSW 12.7 mph - N/A   Partly Cloudy
8:00 PM 73.4 °F 44.6 °F 36% 29.95 in 6.2 mi WSW 11.5 mph - N/A   Partly Cloudy
8:30 PM 71.6 °F 46.4 °F 41% 29.95 in 6.2 mi WSW 16.1 mph - N/A   Partly Cloudy
9:00 PM 71.6 °F 48.2 °F 43% 29.98 in - WSW 12.7 mph - N/A   Clear
9:30 PM 69.8 °F 48.2 °F 46% 29.98 in - WSW 11.5 mph - N/A   Clear
10:00 PM 69.8 °F 48.2 °F 46% 29.98 in - WSW 11.5 mph - N/A   Clear
10:30 PM 68.0 °F 50.0 °F 52% 29.98 in - WSW 10.4 mph - N/A   Clear
11:00 PM 68.0 °F 50.0 °F 52% 29.98 in - WSW 10.4 mph - N/A   Clear
11:30 PM 68.0 °F 48.2 °F 49% 29.98 in - WSW 9.2 mph - N/A   Clear